Willmar, MN

3:19 AM CDT on May 25, 2017 (GMT -0500)
Willmar

Weather History for KBDH - October, 2012

Change the Weather History Date:

Tuesday, October 9, 2012

  Actual Average (KBBB) Record (KBBB)
Temperature  
Mean Temperature 42 °F -  
Max Temperature 48 °F 59 °F 85 °F (1980)
Min Temperature 35 °F 37 °F 20 °F (1964)
Degree Days  
Heating Degree Days 24    
Moisture  
Dew Point 28 °F    
Average Humidity 53    
Maximum Humidity 70    
Minimum Humidity 40    
Precipitation  
Precipitation 0.00 in - - ()
Sea Level Pressure  
Sea Level Pressure 29.87 in    
Wind  
Wind Speed 11 mph (WNW)    
Max Wind Speed 30 mph    
Max Gust Speed 38 mph    
Visibility 10 miles    
Events Rain    
Averages and records for this station are not official NWS values.
T = Trace of Precipitation, MM = Missing Value Source: NWS Daily Summary

Daily Weather History Graph

Daily Weather History Graph

Search for Another Location

Airport or City:

Trip Planner

Search our weather history database for the weather conditions in past years. The results will help you decide how hot, cold, wet, or windy it might be!

Date:

Astronomy

Oct. 09, 2012 Rise Set
Actual Time 7:29 AM CDT 6:45 PM CDT
Civil Twilight 6:59 AM CDT 7:14 PM CDT
Nautical Twilight 6:25 AM CDT 7:48 PM CDT
Astronomical Twilight 5:51 AM CDT 8:22 PM CDT
Moon 12:50 AM CDT (10/9) 3:27 PM CDT (10/9)
Length of Visible Light 12h 14m
Length of Day
11h 15m
Last Quarter, 36% of the Moon is Illuminated
Oct 9
Last Quarter
Oct 15
New
Oct 21
First Quarter
Oct 29
Full
Nov 6
Last Quarter

Hourly Weather History & Observations

Time (CDT) Temp. Windchill Dew Point Humidity Pressure Visibility Wind Dir Wind Speed Gust Speed Precip Events Conditions
12:15 AM 44.6 °F 43.1 °F 33.8 °F 66% 29.75 in 10.0 mi SW 3.5 mph - N/A   Mostly Cloudy
12:35 AM 44.6 °F 43.1 °F 33.8 °F 66% 29.74 in 7.0 mi WSW 3.5 mph - N/A   Scattered Clouds
12:55 AM 42.8 °F 39.3 °F 33.8 °F 70% 29.75 in 7.0 mi WSW 5.8 mph - N/A   Clear
1:15 AM 44.6 °F 42.2 °F 33.8 °F 66% 29.75 in 10.0 mi WSW 4.6 mph - N/A   Clear
1:55 AM 46.4 °F 42.4 °F 33.8 °F 62% 29.75 in 10.0 mi West 8.1 mph - N/A   Clear
2:15 AM 46.4 °F 42.4 °F 33.8 °F 62% 29.76 in 10.0 mi West 8.1 mph - N/A   Clear
2:55 AM 46.4 °F 42.9 °F 33.8 °F 62% 29.75 in 10.0 mi West 6.9 mph - N/A   Scattered Clouds
3:15 AM 46.4 °F 43.5 °F 33.8 °F 62% 29.74 in 10.0 mi West 5.8 mph - N/A   Mostly Cloudy
3:35 AM 46.4 °F 42.4 °F 33.8 °F 62% 29.74 in 10.0 mi West 8.1 mph - N/A   Overcast
3:55 AM 46.4 °F 42.9 °F 33.8 °F 62% 29.74 in 10.0 mi WNW 6.9 mph - N/A   Overcast
4:15 AM 46.4 °F 42.9 °F 33.8 °F 62% 29.74 in 10.0 mi WNW 6.9 mph - N/A   Mostly Cloudy
4:35 AM 46.4 °F 43.5 °F 33.8 °F 62% 29.75 in 10.0 mi WNW 5.8 mph - N/A   Overcast
4:55 AM 46.4 °F 42.9 °F 33.8 °F 62% 29.76 in 10.0 mi WNW 6.9 mph - N/A   Overcast
5:15 AM 44.6 °F 40.7 °F 33.8 °F 66% 29.77 in 10.0 mi West 6.9 mph - N/A   Overcast
5:35 AM 46.4 °F 41.5 °F 33.8 °F 62% 29.78 in 10.0 mi WNW 10.4 mph - N/A Rain Light Rain
5:55 AM 44.6 °F 40.7 °F 33.8 °F 66% 29.78 in 10.0 mi WNW 6.9 mph - N/A Rain Light Rain
6:15 AM 44.6 °F 40.7 °F 33.8 °F 66% 29.79 in 10.0 mi West 6.9 mph - N/A   Scattered Clouds
6:35 AM 44.6 °F 40.7 °F 32.0 °F 61% 29.79 in 10.0 mi West 6.9 mph - N/A   Mostly Cloudy
6:55 AM 44.6 °F 40.2 °F 32.0 °F 61% 29.80 in 10.0 mi West 8.1 mph - N/A   Mostly Cloudy
7:15 AM 44.6 °F 39.7 °F 30.2 °F 57% 29.80 in 10.0 mi West 9.2 mph - N/A   Mostly Cloudy
7:35 AM 46.4 °F 40.7 °F 28.4 °F 50% 29.79 in 10.0 mi WNW 12.7 mph 21.9 mph N/A   Scattered Clouds
7:55 AM 46.4 °F 41.5 °F 28.4 °F 50% 29.80 in 10.0 mi West 10.4 mph 17.3 mph N/A   Clear
8:15 AM 46.4 °F 41.5 °F 28.4 °F 50% 29.80 in 10.0 mi West 10.4 mph - N/A   Clear
8:35 AM 46.4 °F 40.4 °F 28.4 °F 50% 29.80 in 10.0 mi West 13.8 mph 20.7 mph N/A   Clear
8:55 AM 46.4 °F 39.5 °F 26.6 °F 46% 29.80 in 10.0 mi WNW 17.3 mph 20.7 mph N/A   Clear
9:16 AM 46.4 °F 40.4 °F 26.6 °F 46% 29.81 in 10.0 mi WNW 13.8 mph - N/A   Clear
9:35 AM 46.4 °F 40.4 °F 26.6 °F 46% 29.81 in 10.0 mi West 13.8 mph 18.4 mph N/A   Clear
9:55 AM 46.4 °F 40.1 °F 26.6 °F 46% 29.81 in 10.0 mi West 15.0 mph - N/A   Clear
10:15 AM 48.2 °F - 26.6 °F 43% 29.81 in 10.0 mi West 21.9 mph 26.5 mph N/A   Clear
10:35 AM 48.2 °F - 26.6 °F 43% 29.81 in 10.0 mi West 18.4 mph 25.3 mph N/A   Scattered Clouds
10:55 AM 46.4 °F 39.8 °F 24.8 °F 43% 29.82 in 10.0 mi West 16.1 mph 24.2 mph N/A   Mostly Cloudy
11:15 AM 48.2 °F - 24.8 °F 40% 29.82 in 10.0 mi WNW 21.9 mph 25.3 mph N/A   Scattered Clouds
11:35 AM 46.4 °F 38.7 °F 24.8 °F 43% 29.83 in 10.0 mi WNW 20.7 mph 28.8 mph N/A   Mostly Cloudy
11:55 AM 46.4 °F 38.5 °F 24.8 °F 43% 29.83 in 10.0 mi WNW 21.9 mph 31.1 mph N/A   Scattered Clouds
12:15 PM 46.4 °F 38.1 °F 24.8 °F 43% 29.83 in 10.0 mi WNW 24.2 mph 31.1 mph N/A   Scattered Clouds
12:35 PM 46.4 °F 39.0 °F 26.6 °F 46% 29.83 in 10.0 mi WNW 19.6 mph 27.6 mph N/A   Scattered Clouds
12:55 PM 46.4 °F 38.5 °F 26.6 °F 46% 29.84 in 10.0 mi WNW 21.9 mph 28.8 mph N/A   Mostly Cloudy
1:15 PM 46.4 °F 38.7 °F 28.4 °F 50% 29.84 in 10.0 mi WNW 20.7 mph 31.1 mph N/A   Mostly Cloudy
1:35 PM 46.4 °F 38.3 °F 28.4 °F 50% 29.84 in 10.0 mi WNW 23.0 mph 29.9 mph N/A   Mostly Cloudy
1:55 PM 46.4 °F 37.7 °F 28.4 °F 50% 29.85 in 10.0 mi NW 26.5 mph 32.2 mph N/A   Mostly Cloudy
2:15 PM 46.4 °F 37.9 °F 30.2 °F 53% 29.86 in 10.0 mi NW 25.3 mph 32.2 mph N/A   Scattered Clouds
2:35 PM 46.4 °F 37.9 °F 30.2 °F 53% 29.87 in 10.0 mi WNW 25.3 mph 31.1 mph N/A   Scattered Clouds
2:55 PM 46.4 °F 37.5 °F 28.4 °F 50% 29.87 in 10.0 mi NW 27.6 mph 35.7 mph N/A   Scattered Clouds
3:15 PM 46.4 °F 38.3 °F 28.4 °F 50% 29.88 in 10.0 mi WNW 23.0 mph 38.0 mph N/A   Mostly Cloudy
3:35 PM 46.4 °F 37.2 °F 26.6 °F 46% 29.89 in 10.0 mi NW 29.9 mph 34.5 mph N/A   Overcast
3:56 PM 44.6 °F 35.7 °F 26.6 °F 49% 29.91 in 10.0 mi NW 24.2 mph 31.1 mph N/A   Overcast
4:15 PM 44.6 °F 35.9 °F 26.6 °F 49% 29.92 in 10.0 mi NW 23.0 mph 31.1 mph N/A   Overcast
4:35 PM 44.6 °F 36.1 °F 26.6 °F 49% 29.92 in 10.0 mi NW 21.9 mph 33.4 mph N/A   Overcast
4:56 PM 44.6 °F 36.6 °F 26.6 °F 49% 29.93 in 10.0 mi NW 19.6 mph 29.9 mph N/A   Overcast
5:15 PM 44.6 °F 35.9 °F 26.6 °F 49% 29.94 in 10.0 mi NW 23.0 mph 29.9 mph N/A   Overcast
5:35 PM 44.6 °F 35.9 °F 24.8 °F 46% 29.95 in 10.0 mi NW 23.0 mph 27.6 mph N/A   Overcast
5:56 PM 42.8 °F 33.5 °F 26.6 °F 53% 29.96 in 10.0 mi NW 23.0 mph 26.5 mph N/A   Overcast
6:15 PM 42.8 °F 34.5 °F 26.6 °F 53% 29.97 in 10.0 mi NW 18.4 mph 26.5 mph N/A   Overcast
6:35 PM 42.8 °F 34.3 °F 26.6 °F 53% 29.97 in 10.0 mi NW 19.6 mph 23.0 mph N/A   Overcast
6:56 PM 42.8 °F 35.8 °F 24.8 °F 49% 29.98 in 10.0 mi WNW 13.8 mph 26.5 mph N/A   Mostly Cloudy
7:15 PM 42.8 °F 35.8 °F 21.2 °F 42% 29.98 in 10.0 mi WNW 13.8 mph 24.2 mph N/A   Mostly Cloudy
7:35 PM 41.0 °F 34.3 °F 21.2 °F 45% 29.99 in 10.0 mi WNW 11.5 mph - N/A   Mostly Cloudy
7:56 PM 39.2 °F 32.5 °F 21.2 °F 49% 30.00 in 10.0 mi WNW 10.4 mph - N/A   Clear
8:15 PM 37.4 °F 30.8 °F 21.2 °F 52% 30.00 in 10.0 mi WNW 9.2 mph - N/A   Clear
8:35 PM 37.4 °F 30.8 °F 21.2 °F 52% 30.00 in 10.0 mi WNW 9.2 mph - N/A   Clear
8:56 PM 37.4 °F 32.1 °F 21.2 °F 52% 30.01 in 10.0 mi West 6.9 mph - N/A   Clear
9:15 PM 35.6 °F 29.9 °F 21.2 °F 56% 30.01 in 10.0 mi West 6.9 mph - N/A   Clear
9:35 PM 35.6 °F 29.9 °F 21.2 °F 56% 30.01 in 10.0 mi West 6.9 mph - N/A   Scattered Clouds
9:56 PM 35.6 °F 29.2 °F 21.2 °F 56% 30.02 in 10.0 mi West 8.1 mph - N/A   Mostly Cloudy
10:15 PM 37.4 °F 31.4 °F 21.2 °F 52% 30.02 in 10.0 mi West 8.1 mph - N/A   Overcast
10:35 PM 37.4 °F 31.4 °F 21.2 °F 52% 30.02 in 10.0 mi West 8.1 mph - N/A   Overcast
10:56 PM 37.4 °F 32.1 °F 21.2 °F 52% 30.03 in 10.0 mi West 6.9 mph - N/A   Overcast
11:15 PM 37.4 °F 32.8 °F 21.2 °F 52% 30.02 in 10.0 mi West 5.8 mph - N/A   Overcast
11:35 PM 37.4 °F 32.1 °F 21.2 °F 52% 30.02 in 10.0 mi West 6.9 mph - N/A   Overcast
11:55 PM 37.4 °F 32.1 °F 21.2 °F 52% 30.02 in 10.0 mi West 6.9 mph - N/A   Overcast